Quillayute, WA
on Tuesday, December 25, 2012

Tuesday
Previous Day Next Day
Daily Summary
 ActualAverageRecord
Temperature
Mean Temperature °F 40°F  
Max Temperature 46°F 46°F 55°F (1980)
Min Temperature 37°F 35°F 22°F (1985)
Degree Days
Heating Degree Days 23 25  
Month to date heating degree days 617  
Since 1 July heating degree days 2331  
Cooling Degree Days 0 0  
Month to date cooling degree days 0  
Year to date cooling degree days 19  
Moisture
Dew Point 39°F   
Average Humidity 94    
Maximum Humidity 100    
Minimum Humidity 81    
Precipitation
Precipitation 1.12 in 0.41 in 6.71 in (1972)
Month to date precipitation 10.57  
Year to date precipitation 97.12  
Wind
Wind Speed 8 mph   
Max Wind Speed 15 mph   
Max Gust Speed 22 mph   
Visibility 3 miles   
Events Rain   

Key: T is trace of precipitation, MM is missing value
Source: NWS Daily Summary
Time(PST)TemperatureDew PointHumidity Pressure Visibility Wind DirectionWind SpeedGust SpeedPrecipitationEvents Conditions
12:42 AM 37.4°F 35.6°F 93% 29.94 in 4.0 miles ESE 6.9 mph - N/A Rain Light Rain
12:53 AM 39.0°F 37.0°F 93% 29.94 in 3.0 miles ESE 5.8 mph - 0.03 in Rain Light Rain
1:53 AM 39.0°F 37.0°F 93% 29.89 in 4.0 miles East 6.9 mph - 0.04 in Rain Light Rain
2:10 AM 37.4°F 37.4°F 100% 29.87 in 5.0 miles East 6.9 mph - 0.00 in Rain Light Rain
2:53 AM 37.9°F 36.0°F 93% 29.85 in 5.0 miles East 9.2 mph - 0.02 in Rain Light Rain
3:27 AM 37.4°F 37.4°F 100% 29.82 in 4.0 miles East 4.6 mph - 0.01 in Rain Light Rain
3:51 AM 37.4°F 37.4°F 100% 29.80 in 2.5 miles East 5.8 mph - 0.03 in Rain Light Rain
3:53 AM 37.9°F 37.0°F 97% 29.80 in 2.5 miles ENE 6.9 mph - 0.03 in Rain Light Rain
4:07 AM 37.4°F 37.4°F 100% 29.78 in 4.0 miles East 4.6 mph - 0.02 in Rain Light Rain
4:53 AM 37.9°F 37.0°F 97% 29.75 in 3.0 miles East 5.8 mph - 0.04 in Rain Light Rain
5:27 AM 37.4°F 37.4°F 100% 29.71 in 2.5 miles ENE 5.8 mph - 0.04 in Rain Light Rain
5:53 AM 37.0°F 36.0°F 96% 29.69 in 2.5 miles East 10.4 mph 16.1 mph 0.10 in Rain Rain
6:37 AM 37.4°F 35.6°F 93% 29.64 in 3.0 miles ENE 9.2 mph - 0.11 in Rain Light Rain
6:53 AM 37.0°F 36.0°F 96% 29.63 in 2.5 miles ENE 8.1 mph - 0.14 in Rain Light Rain
7:00 AM 37.4°F 35.6°F 93% 29.62 in 3.0 miles ENE 9.2 mph - 0.01 in Rain Light Rain
7:29 AM 37.4°F 35.6°F 93% 29.60 in 2.5 miles East 4.6 mph - 0.06 in Rain Light Rain
7:53 AM 37.0°F 37.0°F 100% 29.58 in 1.5 miles ENE 6.9 mph - 0.11 in Rain Rain
8:10 AM 37.4°F 37.4°F 100% 29.56 in 2.0 miles ENE 9.2 mph - 0.05 in Rain Rain
8:20 AM 37.4°F 37.4°F 100% 29.57 in 1.8 miles Calm Calm - 0.09 in Rain Rain
8:30 AM 37.4°F 37.4°F 100% 29.56 in 2.5 miles ENE 8.1 mph - 0.11 in Rain Rain
8:50 AM 37.4°F 37.4°F 100% 29.55 in 1.8 miles ENE 5.8 mph - 0.16 in Rain Rain
8:53 AM 39.0°F 37.0°F 93% 29.56 in 2.0 miles ENE 8.1 mph - 0.17 in Rain Rain
9:14 AM 39.2°F 37.4°F 93% 29.54 in 1.2 miles ENE 9.2 mph - 0.04 in Rain Rain
9:44 AM 39.2°F 37.4°F 93% 29.55 in 1.5 miles East 5.8 mph - 0.10 in Rain Light Rain
9:53 AM 39.9°F 37.9°F 93% 29.55 in 1.2 miles ENE 10.4 mph - 0.12 in Rain Rain
10:06 AM 39.2°F 37.4°F 93% 29.54 in 1.8 miles East 6.9 mph - 0.02 in Rain Light Rain
10:37 AM 39.2°F 39.2°F 100% 29.53 in 1.2 miles East 6.9 mph - 0.09 in Rain Rain
10:49 AM 41.0°F 37.4°F 87% 29.53 in 2.0 miles East 9.2 mph 16.1 mph 0.11 in Rain Light Rain
10:50 AM 41.0°F 39.0°F 93% 29.54 in 2.0 miles East 8.1 mph 16.1 mph 0.11 in Rain Light Rain
11:03 AM 41.0°F 37.4°F 87% 29.53 in 1.8 miles East 10.4 mph 19.6 mph 0.03 in Rain Rain
11:24 AM 41.0°F 39.2°F 93% 29.52 in 2.0 miles ESE 6.9 mph - 0.06 in Rain Light Rain
11:33 AM 41.0°F 39.2°F 93% 29.52 in 5.0 miles ESE 8.1 mph - 0.06 in   Overcast
11:53 AM 42.1°F 39.0°F 89% 29.53 in 6.0 miles ESE 12.7 mph 20.7 mph 0.06 in   Overcast
12:53 PM 43.0°F 39.9°F 89% 29.54 in 6.0 miles SE 10.4 mph 18.4 mph N/A   Overcast
1:53 PM 44.1°F 41.0°F 89% 29.53 in 5.0 miles SE 9.2 mph 17.3 mph N/A   Overcast
2:36 PM 44.6°F 39.2°F 81% 29.52 in 5.0 miles SSE 10.4 mph 19.6 mph N/A   Haze
2:53 PM 45.0°F 41.0°F 86% 29.53 in 5.0 miles SE 11.5 mph - N/A   Mostly Cloudy
3:07 PM 44.6°F 41.0°F 87% 29.53 in 5.0 miles ESE 5.8 mph - N/A   Overcast
3:36 PM 44.6°F 41.0°F 87% 29.54 in 1.8 miles Variable 3.5 mph - 0.01 in Rain Light Rain
3:53 PM 44.1°F 42.1°F 93% 29.54 in 1.5 miles ESE 8.1 mph - 0.03 in Rain Light Rain
4:05 PM 44.6°F 42.8°F 93% 29.54 in 1.8 miles ESE 5.8 mph - 0.02 in Rain Light Rain
4:19 PM 44.6°F 42.8°F 93% 29.54 in 2.5 miles ESE 6.9 mph - 0.03 in Rain Light Rain
4:36 PM 44.6°F 42.8°F 93% 29.53 in 3.0 miles East 5.8 mph - 0.04 in Rain Light Rain
4:53 PM 44.1°F 42.1°F 93% 29.54 in 6.0 miles East 5.8 mph - 0.04 in Rain Light Rain
5:53 PM 44.1°F 42.1°F 93% 29.54 in 4.0 miles SE 5.8 mph - 0.01 in Rain Light Rain
6:53 PM 44.1°F 42.1°F 93% 29.55 in 1.8 miles Variable 4.6 mph - 0.02 in Rain Light Rain
6:58 PM 44.6°F 42.8°F 93% 29.54 in 3.0 miles SE 4.6 mph - 0.00 in Rain Light Rain
7:53 PM 44.1°F 41.0°F 89% 29.56 in 4.0 miles SE 8.1 mph - 0.00 in   Overcast
8:04 PM 44.6°F 42.8°F 93% 29.56 in 2.0 miles SSE 10.4 mph 17.3 mph 0.00 in Rain Light Rain
8:15 PM 42.8°F 42.8°F 100% 29.57 in 1.5 miles SSE 8.1 mph - 0.01 in Rain Light Rain
8:32 PM 42.8°F 42.8°F 100% 29.57 in 3.0 miles SSE 5.8 mph - 0.01 in Rain Light Rain
8:53 PM 43.0°F 42.1°F 97% 29.59 in 2.5 miles SSE 8.1 mph 17.3 mph 0.01 in   Overcast
9:10 PM 42.8°F 42.8°F 100% 29.59 in 6.0 miles SSE 5.8 mph - 0.01 in   Overcast
9:53 PM 43.0°F 42.1°F 97% 29.61 in 2.0 miles SSE 8.1 mph - 0.02 in Rain Light Rain
10:05 PM 42.8°F 42.8°F 100% 29.61 in 3.0 miles SE 6.9 mph - 0.01 in Rain Light Rain
10:21 PM 42.8°F 42.8°F 100% 29.61 in 6.0 miles SSE 8.1 mph - 0.01 in Rain Light Rain
10:53 PM 43.0°F 42.1°F 97% 29.62 in 6.0 miles SE 5.8 mph - 0.01 in   Overcast
11:07 PM 42.8°F 41.0°F 93% 29.62 in 6.0 miles SE 5.8 mph - N/A   Mostly Cloudy
11:53 PM 43.0°F 42.1°F 97% 29.63 in 2.5 miles Variable 3.5 mph - 0.00 in Rain Light Rain
Moon Phase
Dec. 25 Dec. 28 Jan. 04 Jan. 11 Jan. 18
Sunrise:08:06 AM (PST) Moon Rise:02:45 PM (PST)12/25
Sunset:04:30 PM (PST) Moon Set:05:41 AM (PST)12/25

Copyright © 2014 The Weather Underground, Inc.